Location: Ch?enovice
(49.7164°N, 15.2160°E)
Time: 19:41:12
(UTC+00:00)

SL-16 R/B - Pass Details

Date: 23 May 2024
Orbit: 985 x 1007 km, 99.7° (Epoch: 20 June)

Event Time Altitude Azimuth Distance (km) Brightness Sun altitude
Rises 01:47:35 0° 172° (S) 3,720 5.1 -10.0°
Reaches altitude 10° 01:50:05 10° 175° (S) 2,775 4.5 -9.8°
Maximum altitude 01:56:16 64° 257° (WSW) 1,111 2.6 -9.1°
Drops below altitude 10° 02:02:31 10° 339° (NNW) 2,794 5.2 -8.4°
Sets 02:05:03 0° 342° (NNW) 3,747 6.0 -8.1°
